QPF
0.00 0.00 0.00 0.00 0.00 0.00 0.00 0.00 0.00 0.00 0.00 0.00 0.00 0.00 0.00 0.00 0.00 0.00 0.00 0.00 0.00 0.00 0.00 0.00 0.00 0.00 0.00 0.00 0.00 0.00 0.00 0.00
0.00 0.00 0.00 0.00 0.00 0.00 0.00 0.00 0.00 0.00 0.00 0.00 0.00 0.00 0.00 0.00 0.00 0.00 0.00 0.00 0.00 0.00 0.00 0.00 0.00 0.00 0.00 0.00 0.00 0.00 0.00 0.00
0.00 0.00 0.00 0.00 0.00 0.00 0.00 0.01 0.00 0.00 0.00 0.00 0.00 0.00 0.00 0.00 0.00 0.00 0.00 0.00 0.00 0.00 0.00 0.00 0.00 0.00 0.00 0.00 0.00 0.00 0.00 0.00
0.00 0.00 0.00 0.00 0.00 0.00 0.00 0.00 0.00 0.00 0.00 0.00 0.00 0.00 0.00 0.00 0.00 0.00 0.00 0.00 0.00 0.00 0.00 0.00 0.00 0.00 0.00 0.00 0.00 0.00 0.00 0.00
0.00 0.00 0.00 0.00 0.00 0.00 0.00 0.00 0.00 0.00 0.00 0.00 0.00 0.00 0.00 0.00 0.00 0.00 0.00 0.00 0.00 0.00 0.00 0.00 0.00 0.00 0.00 0.00 0.00 0.00 0.00 0.00
0.00 0.00 0.00 0.00 0.00 0.00 0.00 0.00 0.00 0.00 0.00 0.00 0.00 0.02 0.03 0.01 0.00 0.00 0.00 0.00 0.00 0.00 0.00 0.00 0.00 0.00 0.00 0.00 0.00 0.00 0.00 0.00
0.00 0.00 0.00 0.00 0.00 0.00 0.00 0.00 0.00 0.00 0.00 0.00 0.00 0.02 0.03 0.01 0.01 0.00 0.00 0.00 0.00 0.00 0.00 0.00 0.00 0.00 0.00 0.00 0.00 0.00 0.00 0.00
0.00 0.00 0.00 0.02 0.01 0.00 0.00 0.00 0.00 0.00 0.00 0.00 0.00 0.01 0.02 0.01 0.00 0.01 0.00 0.00 0.00 0.00 0.00 0.00 0.00 0.00 0.00 0.00 0.00 0.00 0.00 0.00
0.00 0.00 0.00 0.00 0.00 0.00 0.00 0.00 0.00 0.00 0.00 0.00 0.00 0.00 0.01 0.00 0.00 0.00 0.00 0.00 0.00 0.00 0.00 0.00 0.00 0.00 0.00 0.00 0.00 0.00 0.00 0.00
0.00 0.00 0.00 0.00 0.00 0.00 0.00 0.00 0.00 0.00 0.00 0.00 0.00 0.00 0.00 0.00 0.00 0.00 0.00 0.00 0.00 0.00 0.00 0.00 0.00 0.00 0.00 0.00 0.00 0.00 0.00 0.00
0.00 0.00 0.00 0.00 0.00 0.00 0.00 0.00 0.00 0.00 0.00 0.00 0.00 0.00 0.00 0.00 0.00 0.00 0.00 0.00 0.00 0.00 0.00 0.00 0.00 0.00 0.00 0.00 0.00 0.00 0.00 0.00
0.00 0.00 0.00 0.00 0.00 0.00 0.00 0.00 0.00 0.00 0.00 0.00 0.00 0.00 0.00 0.00 0.00 0.00 0.00 0.00 0.00 0.00 0.00 0.00 0.00 0.00 0.00 0.00 0.00 0.00 0.00 0.00
0.00 0.00 0.00 0.00 0.00 0.00 0.00 0.00 0.00 0.00 0.00 0.00 0.00 0.00 0.00 0.00 0.00 0.00 0.00 0.00 0.00 0.00 0.00 0.00 0.00 0.00 0.00 0.00 0.00 0.00 0.00 0.00
0.00 0.00 0.00 0.00 0.00 0.00 0.00 0.00 0.00 0.00 0.00 0.00 0.00 0.00 0.00 0.00 0.00 0.00 0.00 0.00 0.00 0.00 0.00 0.00 0.00 0.00 0.00 0.00 0.00 0.00 0.00 0.00
0.00 0.00 0.00 0.00 0.00 0.00 0.00 0.00 0.00 0.00 0.00 0.00 0.00 0.00 0.00 0.00 0.00 0.00 0.00 0.00 0.00 0.00 0.00 0.00 0.00 0.00 0.00 0.00 0.00 0.00 0.00 0.00
0.00 0.00 0.00 0.00 0.00 0.00 0.00 0.00 0.00 0.00 0.00 0.00 0.00 0.00 0.00 0.00 0.00 0.00 0.00 0.00 0.00 0.00 0.00 0.00 0.00 0.00 0.00 0.00 0.00 0.00 0.00 0.00
0.00 0.00 0.00 0.00 0.00 0.00 0.00 0.00 0.00 0.00 0.00 0.00 0.00 0.00 0.00 0.00 0.00 0.00 0.00 0.00 0.00 0.00 0.00 0.00 0.00 0.00 0.00 0.00 0.00 0.00 0.00 0.00
0.00 0.00 0.00 0.00 0.00 0.00 0.00 0.00 0.00 0.00 0.00 0.00 0.00 0.00 0.00 0.00 0.00 0.00 0.00 0.00 0.00 0.00 0.00 0.00 0.00 0.00 0.00 0.00 0.00 0.00 0.00 0.00
0.00 0.00 0.00 0.00 0.00 0.00 0.00 0.00 0.00 0.00 0.00 0.00 0.00 0.00 0.00 0.00 0.00 0.00 0.00 0.00 0.00 0.00 0.00 0.00 0.00 0.00 0.00 0.00 0.00 0.00 0.00 0.00
MSLP
997.00 998.27 999.81 1001.71 1003.05 1004.70 1006.04 1006.94 1007.83 1008.70 1009.25 1010.05 1010.56 1011.09 1011.56 1012.00 1012.72 1013.30 1014.01 1014.48 1014.80 1015.10 1015.54 1016.20 1016.48 1016.94 1017.30 1017.52 1017.80 1018.09 1018.54 1018.81
995.90 997.05 998.59 1000.49 1002.11 1003.88 1004.89 1005.88 1007.02 1008.22 1009.06 1009.78 1010.22 1010.61 1011.17 1011.80 1012.43 1012.97 1013.75 1014.33 1014.67 1014.92 1015.39 1016.12 1016.36 1016.76 1017.24 1017.53 1017.92 1018.22 1018.52 1018.76
995.56 996.41 997.94 999.48 1000.89 1003.09 1004.14 1005.07 1005.95 1007.35 1008.32 1009.32 1010.05 1010.47 1010.96 1011.68 1012.19 1012.90 1013.49 1014.10 1014.38 1014.63 1015.23 1015.98 1016.18 1016.53 1017.11 1017.50 1017.94 1018.49 1018.72 1018.77
995.26 995.99 997.00 998.54 1000.08 1001.49 1003.31 1004.37 1005.28 1006.35 1007.73 1009.00 1009.76 1010.36 1010.94 1011.55 1012.05 1012.74 1013.34 1013.92 1014.33 1014.55 1014.91 1015.56 1015.98 1016.39 1017.08 1017.54 1017.87 1018.18 1018.80 1019.00
995.28 995.44 996.35 997.64 998.92 1000.62 1002.35 1003.87 1005.04 1006.10 1007.09 1008.01 1009.06 1009.62 1010.15 1010.91 1011.75 1012.49 1013.09 1013.58 1014.15 1014.34 1014.79 1015.25 1015.81 1016.28 1016.87 1017.39 1017.77 1018.01 1018.34 1019.01
997.19 997.09 997.21 997.26 998.27 999.71 1001.55 1003.30 1004.56 1005.64 1006.52 1007.19 1008.37 1009.35 1009.87 1010.47 1011.28 1012.17 1012.93 1013.46 1013.96 1014.25 1014.70 1015.17 1015.68 1016.08 1016.61 1017.16 1017.62 1017.88 1018.11 1018.59
998.15 997.92 997.44 997.90 999.07 1000.18 1001.29 1002.64 1004.19 1005.12 1006.00 1006.96 1007.76 1008.71 1009.56 1010.20 1010.89 1011.67 1012.36 1013.05 1013.75 1014.22 1014.56 1015.08 1015.47 1015.93 1016.36 1017.03 1017.67 1017.99 1018.14 1018.26
999.53 999.05 999.30 999.97 999.94 1000.47 1001.92 1003.06 1004.01 1004.90 1005.70 1006.84 1007.72 1008.33 1009.19 1009.74 1010.28 1011.02 1011.95 1012.74 1013.17 1013.84 1014.25 1015.23 1015.36 1016.00 1016.45 1016.86 1017.54 1017.93 1018.24 1018.61
1000.84 1000.66 1000.97 1000.91 1001.21 1001.30 1001.71 1002.94 1004.05 1005.00 1005.75 1006.52 1007.42 1008.12 1008.88 1009.41 1009.82 1010.62 1011.51 1012.27 1013.19 1013.60 1014.60 1015.42 1015.44 1016.01 1016.65 1017.08 1017.44 1017.98 1018.37 1018.70
1001.66 1001.76 1002.10 1002.08 1002.09 1002.31 1002.39 1002.97 1003.72 1004.68 1005.72 1006.52 1007.24 1007.87 1008.56 1009.07 1009.49 1010.15 1011.07 1011.94 1012.83 1013.72 1014.20 1015.00 1015.82 1016.47 1016.87 1017.47 1017.70 1018.06 1018.57 1018.98
1002.91 1002.25 1002.50 1002.92 1002.94 1003.13 1003.20 1003.42 1003.61 1004.24 1005.07 1005.79 1006.56 1007.38 1008.02 1008.56 1009.28 1009.92 1010.67 1011.68 1012.64 1013.61 1014.54 1014.91 1015.96 1016.90 1017.25 1017.76 1018.04 1018.48 1018.83 1019.46
1003.76 1002.85 1002.49 1003.07 1003.58 1003.91 1004.14 1004.11 1004.28 1004.36 1004.90 1005.61 1006.13 1006.70 1007.30 1008.03 1008.75 1009.42 1010.32 1011.21 1012.12 1013.22 1014.22 1014.94 1015.63 1016.75 1017.40 1017.99 1018.24 1018.62 1018.98 1019.62
1004.88 1003.58 1002.87 1002.94 1003.34 1003.92 1004.28 1004.57 1004.69 1004.87 1004.87 1004.96 1005.59 1006.21 1006.73 1007.30 1007.97 1008.62 1009.51 1010.52 1011.69 1012.81 1013.92 1014.92 1015.55 1016.07 1017.22 1017.77 1018.16 1018.74 1019.01 1019.69
1004.05 1003.54 1003.66 1003.15 1003.24 1003.58 1003.78 1004.02 1004.58 1004.94 1005.04 1004.94 1005.38 1005.80 1006.44 1007.15 1007.81 1008.45 1009.20 1010.23 1011.34 1012.48 1013.61 1014.76 1015.69 1016.36 1017.04 1017.69 1018.20 1018.68 1019.13 1019.83
1004.25 1003.42 1002.89 1002.81 1003.02 1003.09 1003.31 1003.59 1003.76 1004.46 1004.93 1004.96 1005.28 1005.61 1006.03 1006.70 1007.59 1008.46 1009.38 1010.41 1011.45 1012.49 1013.63 1014.71 1015.53 1016.46 1017.12 1017.80 1018.50 1018.98 1019.14 1020.30
1003.11 1002.96 1002.51 1002.35 1002.16 1002.02 1002.34 1002.49 1002.79 1003.50 1003.97 1004.53 1004.74 1005.34 1005.92 1006.60 1007.42 1008.23 1009.27 1010.36 1011.53 1012.59 1013.78 1015.04 1016.08 1016.85 1017.58 1018.13 1018.77 1019.29 1019.59 1020.13
1002.59 1002.40 1001.97 1001.88 1001.67 1001.56 1001.66 1001.80 1002.20 1002.52 1003.00 1003.52 1004.06 1004.78 1005.80 1006.47 1007.14 1008.14 1009.42 1010.65 1011.73 1012.75 1013.78 1014.89 1016.07 1016.82 1017.63 1018.19 1018.60 1019.18 1019.83 1020.82
1002.90 1002.82 1001.99 1001.57 1001.38 1001.47 1001.68 1001.79 1001.69 1001.81 1002.09 1002.61 1003.32 1004.18 1005.32 1006.19 1007.16 1008.33 1009.64 1010.83 1011.83 1012.82 1013.93 1015.01 1016.27 1017.03 1017.87 1018.47 1019.02 1019.62 1020.04 1020.82
1003.11 1002.87 1002.48 1001.91 1001.55 1001.34 1001.36 1001.31 1001.47 1001.45 1001.55 1001.87 1002.64 1003.56 1004.55 1006.36 1007.56 1008.42 1009.70 1010.85 1011.93 1012.84 1013.92 1015.06 1016.19 1017.28 1018.01 1018.60 1019.17 1019.84 1020.38 1020.95
Thickness
5757 5752 5742 5734 5720 5712 5703 5696 5691 5687 5682 5679 5675 5674 5670 5668 5663 5657 5650 5646 5643 5640 5638 5632 5629 5626 5622 5621 5618 5617 5612 5609
5754 5750 5739 5730 5715 5704 5705 5696 5688 5680 5673 5670 5667 5667 5662 5660 5655 5650 5643 5639 5635 5633 5631 5623 5621 5618 5615 5612 5609 5606 5603 5600
5751 5737 5733 5729 5717 5695 5698 5692 5685 5677 5669 5664 5659 5658 5654 5650 5646 5643 5636 5631 5629 5626 5623 5615 5614 5612 5606 5604 5599 5594 5592 5591
5740 5734 5725 5723 5712 5698 5690 5688 5681 5674 5664 5654 5650 5648 5643 5639 5637 5635 5627 5623 5619 5616 5614 5609 5607 5604 5597 5593 5590 5587 5580 5579
5733 5733 5719 5715 5712 5698 5687 5679 5671 5665 5657 5650 5642 5641 5637 5634 5627 5624 5618 5615 5609 5607 5604 5602 5597 5594 5589 5584 5582 5579 5575 5567
5705 5705 5709 5710 5708 5694 5682 5673 5662 5656 5650 5645 5637 5631 5629 5626 5621 5615 5608 5605 5600 5598 5595 5593 5589 5587 5582 5577 5572 5569 5567 5562
5693 5695 5694 5693 5687 5682 5672 5664 5653 5649 5644 5636 5631 5626 5621 5617 5612 5606 5601 5597 5592 5588 5586 5582 5579 5577 5574 5567 5562 5558 5556 5554
5669 5674 5668 5663 5666 5668 5658 5648 5641 5637 5634 5626 5619 5618 5613 5609 5606 5602 5594 5588 5585 5580 5578 5569 5569 5565 5561 5557 5551 5547 5544 5539
5642 5648 5644 5642 5646 5649 5649 5639 5632 5627 5623 5618 5610 5607 5603 5600 5597 5593 5587 5581 5575 5572 5563 5556 5556 5552 5546 5542 5539 5533 5529 5525
5621 5625 5621 5622 5622 5626 5631 5627 5623 5618 5613 5607 5600 5596 5594 5590 5586 5583 5579 5572 5566 5560 5555 5548 5540 5535 5532 5526 5522 5519 5514 5509
5594 5605 5606 5603 5605 5607 5609 5609 5610 5608 5603 5600 5593 5586 5582 5579 5574 5571 5568 5561 5554 5547 5539 5536 5528 5519 5513 5510 5508 5503 5499 5491
5572 5584 5592 5590 5587 5586 5587 5589 5590 5592 5590 5588 5584 5577 5573 5569 5565 5563 5557 5550 5543 5536 5527 5521 5512 5506 5500 5497 5493 5487 5483 5477
5552 5562 5573 5577 5574 5573 5574 5572 5572 5572 5575 5579 5576 5571 5567 5563 5558 5555 5549 5542 5534 5525 5516 5508 5503 5499 5488 5484 5480 5474 5470 5462
5544 5550 5551 5559 5561 5559 5562 5563 5560 5559 5561 5565 5565 5562 5557 5553 5548 5543 5538 5531 5523 5514 5505 5495 5488 5482 5477 5471 5466 5459 5454 5448
5525 5535 5545 5548 5547 5550 5552 5552 5554 5550 5547 5549 5550 5550 5548 5544 5539 5532 5524 5517 5509 5500 5490 5481 5474 5467 5461 5454 5448 5443 5440 5430
5523 5528 5534 5540 5540 5546 5545 5547 5549 5544 5542 5538 5539 5535 5532 5530 5527 5522 5515 5506 5496 5487 5476 5466 5457 5450 5445 5439 5433 5428 5424 5416
5517 5518 5525 5529 5535 5533 5536 5539 5537 5537 5535 5531 5530 5527 5520 5517 5514 5509 5499 5490 5481 5473 5464 5454 5444 5439 5431 5426 5421 5415 5407 5396
5498 5497 5506 5514 5519 5522 5522 5523 5524 5526 5527 5526 5522 5518 5511 5507 5499 5490 5482 5472 5465 5457 5448 5440 5430 5423 5415 5408 5402 5395 5388 5378
5480 5482 5487 5494 5502 5507 5508 5512 5514 5515 5514 5518 5514 5509 5505 5492 5480 5473 5464 5455 5446 5439 5432 5423 5414 5403 5395 5389 5383 5376 5370 5363